Date String (YYYY-MM-DD hh:mm:ss) UTC,Instrument flags,Ambient pressure (hPa),Sample flow (lpm),Bypass flow (lpm),Sample temperature (°C),Ambient temperature (°C),ASC tube jacket temperature (°C),LED temperature (°C),Box temperature (°C),Sample RH (%),Span deviation,Mass concentration (μg/m³),Mass concentration (μg/m³),Mass concentration (μg/m³)
DateTimeUTC,F1_M11,P_M11,Q1_M11,Q2_M11,T1_M11,T2_M11,T3_M11,T4_M11,T5_M11,U1_M11,ZSPAN_M11,X0_M11,X2_M11,X1_M11
2022-09-06 04:00:00,,0828.1,5.00,0.00,29.4,27.9,00.0,38.1,31.3,19.9,0000.0,0027.70,0008.29,0006.60
2022-09-06 04:01:00,,0828.1,5.01,0.00,29.5,28.1,00.0,38.1,31.4,20.0,0000.0,0027.64,0008.34,0006.60
2022-09-06 04:02:00,,0828.1,5.01,0.00,29.5,28.2,00.0,38.2,31.4,19.4,0000.0,0028.43,0008.37,0006.62
2022-09-06 04:03:00,,0828.1,4.98,0.00,29.5,28.4,00.0,38.2,31.4,19.1,0000.0,0027.85,0008.42,0006.63
2022-09-06 04:04:00,,0828.1,5.01,0.00,29.6,28.5,00.0,38.2,31.5,18.9,0000.0,0026.76,0008.38,0006.63
2022-09-06 04:05:00,,0828.2,4.99,0.00,29.6,28.6,00.0,38.2,31.6,18.9,0000.0,0025.31,0008.31,0006.64
2022-09-06 04:06:00,,0828.2,5.02,0.00,29.7,28.8,00.0,38.3,31.6,18.9,0000.0,0023.46,0008.27,0006.63
2022-09-06 04:07:00,,0828.2,4.99,0.00,29.7,28.6,00.0,38.3,31.7,19.2,0000.0,0022.52,0008.19,0006.63
2022-09-06 04:08:00,,0828.2,5.01,0.00,29.7,27.4,00.0,38.3,31.5,19.3,0000.0,0022.22,0008.20,0006.64
2022-09-06 04:09:00,,0828.2,4.99,0.00,29.6,27.0,00.0,38.3,31.5,19.1,0000.0,0020.07,0008.23,0006.65
2022-09-06 04:10:00,,0828.3,4.99,0.00,29.6,27.2,00.0,38.2,31.4,19.0,0000.0,0018.98,0008.21,0006.66
2022-09-06 04:11:00,,0828.2,5.01,0.00,29.6,27.5,00.0,38.2,31.4,19.2,0000.0,0020.78,0008.18,0006.68
2022-09-06 04:12:00,,0828.2,5.00,0.00,29.6,27.8,00.0,38.2,31.4,19.2,0000.0,0020.46,0008.11,0006.68
2022-09-06 04:13:00,,0828.2,5.01,0.00,29.6,28.0,00.0,38.3,31.4,19.2,0000.0,0020.56,0008.11,0006.68
2022-09-06 04:14:00,,0828.2,4.98,0.00,29.6,28.2,00.0,38.3,31.5,19.3,0000.0,0020.82,0008.09,0006.69
2022-09-06 04:15:00,,0828.2,5.01,0.00,29.6,28.4,00.0,38.3,31.5,19.4,0000.0,0020.93,0008.12,0006.69
2022-09-06 04:16:00,,0828.2,5.01,0.00,29.7,28.5,00.0,38.3,31.6,19.4,0000.0,0022.12,0008.16,0006.69
2022-09-06 04:17:00,,0828.3,4.99,0.00,29.7,28.7,00.0,38.3,31.7,19.5,0000.0,0022.59,0008.12,0006.70
2022-09-06 04:18:00,,0828.3,5.01,0.00,29.8,28.8,00.0,38.4,31.7,19.2,0000.0,0023.44,0008.12,0006.71
2022-09-06 04:19:00,,0828.3,4.99,0.00,29.8,28.3,00.0,38.4,31.7,19.2,0000.0,0024.21,0008.05,0006.71
2022-09-06 04:20:00,,0828.3,5.00,0.00,29.7,26.9,00.0,38.4,31.4,19.3,0000.0,0024.78,0008.05,0006.71
2022-09-06 04:21:00,,0828.3,5.00,0.00,29.6,26.3,00.0,38.3,31.4,19.5,0000.0,0025.91,0008.08,0006.73
2022-09-06 04:22:00,,0828.3,5.00,0.00,29.6,26.5,00.0,38.3,31.3,19.7,0000.0,0023.99,0008.14,0006.73
2022-09-06 04:23:00,,0828.3,5.00,0.00,29.5,26.8,00.0,38.2,31.2,19.7,0000.0,0023.80,0008.21,0006.74
2022-09-06 04:24:00,,0828.3,5.00,0.00,29.5,27.2,00.0,38.2,31.2,19.4,0000.0,0022.35,0008.17,0006.74
2022-09-06 04:25:00,,0828.2,5.00,0.00,29.5,27.5,00.0,38.2,31.3,18.7,0000.0,0022.58,0008.13,0006.73
2022-09-06 04:26:00,,0828.3,5.00,0.00,29.5,27.8,00.0,38.2,31.3,18.0,0000.0,0022.46,0008.10,0006.73
2022-09-06 04:27:00,,0828.3,5.00,0.00,29.5,28.0,00.0,38.2,31.4,18.2,0000.0,0021.38,0008.04,0006.73
2022-09-06 04:28:00,,0828.2,5.00,0.00,29.5,28.2,00.0,38.2,31.4,18.3,0000.0,0020.88,0008.06,0006.73
2022-09-06 04:29:00,,0828.2,4.99,0.00,29.6,28.4,00.0,38.3,31.5,18.0,0000.0,0019.78,0008.05,0006.73
2022-09-06 04:30:00,,0828.2,5.01,0.00,29.6,28.5,00.0,38.3,31.5,17.8,0000.0,0018.99,0008.09,0006.73
2022-09-06 04:31:00,,0828.3,4.98,0.00,29.6,28.6,00.0,38.3,31.6,17.6,0000.0,0018.70,0008.06,0006.72
2022-09-06 04:32:00,,0828.3,5.01,0.00,29.7,28.7,00.0,38.3,31.6,17.7,0000.0,0017.76,0008.02,0006.70
2022-09-06 04:33:00,,0828.2,4.99,0.00,29.7,28.8,00.0,38.4,31.7,18.2,0000.0,0017.99,0007.98,0006.70
2022-09-06 04:34:00,,0828.3,5.00,0.00,29.8,28.2,00.0,38.4,31.6,18.7,0000.0,0018.22,0007.98,0006.71
2022-09-06 04:35:00,,0828.2,5.00,0.00,29.7,27.1,00.0,38.4,31.5,18.9,0000.0,0017.80,0008.05,0006.74
2022-09-06 04:36:00,,0828.2,5.01,0.00,29.7,27.0,00.0,38.3,31.5,19.0,0000.0,0017.65,0008.14,0006.78
2022-09-06 04:37:00,,0828.3,4.99,0.00,29.6,27.2,00.0,38.3,31.3,19.2,0000.0,0017.93,0008.18,0006.82
2022-09-06 04:38:00,,0828.3,5.02,0.00,29.6,27.5,00.0,38.3,31.4,19.4,0000.0,0017.96,0008.20,0006.85
2022-09-06 04:39:00,,0828.3,5.00,0.00,29.6,27.8,00.0,38.3,31.4,19.5,0000.0,0018.39,0008.23,0006.89
2022-09-06 04:40:00,,0828.3,5.00,0.00,29.6,28.1,00.0,38.3,31.5,19.3,0000.0,0019.09,0008.30,0006.92
2022-09-06 04:41:00,,0828.4,5.01,0.00,29.6,28.3,00.0,38.3,31.5,19.0,0000.0,0018.82,0008.38,0006.95
2022-09-06 04:42:00,,0828.2,4.98,0.00,29.7,28.4,00.0,38.3,31.6,18.6,0000.0,0018.39,0008.43,0006.97
2022-09-06 04:43:00,,0828.3,5.01,0.00,29.7,28.6,00.0,38.4,31.6,18.4,0000.0,0018.45,0008.50,0007.00
2022-09-06 04:44:00,,0828.3,5.00,0.00,29.7,28.7,00.0,38.4,31.7,18.5,0000.0,0018.66,0008.47,0007.01
2022-09-06 04:45:00,,0828.3,4.98,0.00,29.8,28.8,00.0,38.4,31.7,18.8,0000.0,0018.43,0008.49,0007.02
2022-09-06 04:46:00,,0828.3,5.00,0.00,29.8,28.5,00.0,38.4,31.7,19.0,0000.0,0018.35,0008.53,0007.03
2022-09-06 04:47:00,,0828.3,5.01,0.00,29.8,27.0,00.0,38.4,31.5,19.3,0000.0,0018.41,0008.53,0007.04
2022-09-06 04:48:00,,0828.3,4.99,0.00,29.7,26.1,00.0,38.4,31.4,19.2,0000.0,0018.94,0008.58,0007.05
2022-09-06 04:49:00,,0828.3,5.01,0.00,29.6,26.3,00.0,38.3,31.3,19.1,0000.0,0019.63,0008.63,0007.05
2022-09-06 04:50:00,,0828.3,5.00,0.00,29.5,26.5,00.0,38.3,31.2,18.9,0000.0,0019.91,0008.70,0007.04
2022-09-06 04:51:00,,0828.3,5.00,0.00,29.5,26.9,00.0,38.3,31.2,18.9,0000.0,0019.50,0008.67,0007.03
2022-09-06 04:52:00,,0828.3,5.00,0.00,29.5,27.3,00.0,38.2,31.3,18.8,0002.2,0019.16,0008.59,0007.02
2022-09-06 04:53:00,,0828.3,5.00,0.00,29.5,27.6,00.0,38.2,31.3,18.6,0001.7,0018.96,0008.51,0007.02
2022-09-06 04:54:00,,0828.3,5.01,0.00,29.5,27.9,00.0,38.3,31.3,18.7,0001.6,0018.67,0008.51,0007.03
2022-09-06 04:55:00,,0828.3,5.00,0.00,29.5,28.1,00.0,38.3,31.4,18.6,0000.6,0018.00,0008.50,0007.03
2022-09-06 04:56:00,,0828.3,4.99,0.00,29.5,28.2,00.0,38.3,31.4,18.1,0000.0,0018.06,0008.44,0007.02
2022-09-06 04:57:00,,0828.3,5.00,0.00,29.6,28.4,00.0,38.3,31.5,18.1,0000.0,0017.92,0008.30,0006.98
2022-09-06 04:58:00,,0828.3,5.01,0.00,29.6,28.5,00.0,38.3,31.5,18.3,0000.0,0017.55,0008.21,0006.94
2022-09-06 04:59:00,,0828.3,4.99,0.00,29.6,28.6,00.0,38.3,31.6,17.6,0000.0,0016.43,0008.08,0006.90
